Location: Basses Si�yes
(44.0835°N, 6.2037°E)
Time: 08:59:13
(UTC+00:00)

Cosmos 1464 Rocket - Pass Details

Date: 27 February 2020
Orbit: 952 x 1002 km, 82.9° (Epoch: 03 April)

Event Time Altitude Azimuth Distance (km) Brightness Sun altitude
Rises 18:02:29 0° 168° (SSE) 3,704 6.9 -8.4°
Reaches altitude 10° 18:05:04 10° 163° (SSE) 2,762 6.2 -8.9°
Maximum altitude 18:11:08 49° 90° (E) 1,271 4.2 -9.9°
Drops below altitude 10° 18:17:14 10° 18° (NNE) 2,782 6.2 -11.0°
Sets 18:19:51 0° 13° (NNE) 3,733 6.9 -11.5°
